CW9669 Weather Reports


time (UTC)temp
C
wind
direction
speed
KPH
gust
KPH
rain 1hr
cm
rain 24hr
cm
rain mn
cm
humidity
%
barometer
mb
20260505213616 17 322 1.6 6.4 0.00 0.00 0.00 71 1014.5
20260505212616 17 24 0.0 6.4 0.00 0.00 0.00 71 1014.7
20260505211617 16 300 3.2 6.4 0.00 0.00 0.00 71 1014.5
20260505210617 16 292 1.6 6.4 0.00 0.00 0.00 72 1014.8
20260505205615 16 298 1.6 8.0 0.00 0.00 0.00 71 1014.9
20260505204613 16 350 1.6 6.4 0.00 0.00 0.00 72 1014.9
20260505203616 16 296 1.6 6.4 0.00 0.00 0.00 71 1014.9
20260505202617 16 279 1.6 8.0 0.00 0.00 0.00 72 1014.9
20260505201620 16 309 1.6 6.4 0.00 0.00 0.00 72 1015.0
20260505200615 16 309 1.6 6.4 0.00 0.00 0.00 74 1015.0
20260505195618 15 24 1.6 6.4 0.00 0.00 0.00 74 1015.1
20260505194612 15 298 1.6 6.4 0.00 0.00 0.00 74 1015.1
20260505194117 15 267 1.6 8.0 0.00 0.00 0.00 73 1015.1
20260505192611 15 264 1.6 6.4 0.00 0.00 0.00 74 1015.1
20260505191612 15 223 0.0 1.6 0.00 0.00 0.00 75 1015.1
20260505190611 15 101 1.6 4.8 0.00 0.00 0.00 76 1015.1
20260505185613 15 232 1.6 4.8 0.00 0.00 0.00 76 1015.1
20260505184612 15 222 0.0 1.6 0.00 0.00 0.00 76 1015.0
20260505183611 15 227 1.6 6.4 0.00 0.00 0.00 76 1015.1
20260505182612 15 214 0.0 3.2 0.00 0.00 0.00 76 1015.0
20260505181603 14 188 0.0 3.2 0.00 0.00 0.00 76 1014.9
20260505180604 14 141 0.0 1.6 0.00 0.00 0.00 77 1014.9
20260505175605 14 225 0.0 3.2 0.00 0.00 0.00 76 1014.9
20260505174604 14 138 0.0 1.6 0.00 0.00 0.00 78 1014.8
20260505173606 13 342 0.0 3.2 0.00 0.00 0.00 78 1014.8
20260505172607 13 288 0.0 3.2 0.00 0.00 0.00 77 1014.8
20260505171604 13 276 0.0 3.2 0.00 0.00 0.00 78 1014.7
20260505170603 13 216 0.0 4.8 0.00 0.00 0.00 77 1014.7
20260505165605 13 342 0.0 3.2 0.00 0.00 0.00 79 1014.7
20260505164605 13 331 0.0 3.2 0.00 0.00 0.00 78 1014.7
20260505163605 13 290 0.0 0.0 0.00 0.00 0.00 80 1014.8
20260505162609 13 311 0.0 0.0 0.00 0.00 0.00 81 1014.8
20260505161607 13 311 0.0 3.2 0.00 0.00 0.00 81 1014.8
20260505160606 13 230 0.0 1.6 0.00 0.00 0.00 82 1014.8
20260505152555 12 213 0.0 3.2 0.00 0.00 0.00 83 1014.8
20260505151553 12 307 0.0 1.6 0.00 0.00 0.00 83 1014.7
20260505150555 12 211 0.0 1.6 0.00 0.00 0.00 84 1014.5
20260505140553 12 330 0.0 1.6 0.00 0.00 0.00 85 1014.4
20260505124549 12 267 0.0 0.0 0.00 0.00 0.00 86 1013.8
20260505123549 12 267 0.0 1.6 0.00 0.00 0.00 86 1013.7
20260505123029 12 261 0.0 1.6 0.00 0.00 0.00 86 1013.7
20260505121549 12 262 0.0 1.6 0.00 0.00 0.00 86 1013.5
20260505120549 12 261 0.0 4.8 0.00 0.00 0.00 86 1013.4
20260505120028 12 331 0.0 1.6 0.00 0.00 0.00 86 1013.5
20260505114549 12 9 0.0 1.6 0.00 0.00 0.00 87 1013.5
20260505113550 12 26 0.0 0.0 0.00 0.00 0.00 87 1013.5
20260505112550 12 297 0.0 1.6 0.00 0.00 0.00 87 1013.6
20260505111552 12 297 0.0 1.6 0.00 0.00 0.00 87 1013.7
20260505110545 11 297 0.0 1.6 0.00 0.00 0.00 87 1013.7
20260505101533 11 303 0.0 3.2 0.00 0.00 0.00 89 1013.4
20260505100533 12 235 0.0 1.6 0.00 0.00 0.00 89 1013.4
20260505095532 12 213 0.0 0.0 0.00 0.00 0.00 89 1013.4
20260505094535 12 213 0.0 1.6 0.00 0.00 0.00 88 1013.3
20260505093533 12 219 0.0 1.6 0.00 0.00 0.00 88 1013.3
20260505092533 12 305 0.0 0.0 0.00 0.00 0.00 87 1013.3
20260505091534 12 327 0.0 3.2 0.00 0.00 0.00 87 1013.1
20260505090534 12 296 1.6 4.8 0.00 0.00 0.00 87 1013.1
20260505085534 12 259 0.0 4.8 0.00 0.00 0.00 86 1013.1
20260505084533 12 300 0.0 3.2 0.00 0.00 0.00 86 1013.3
20260505083537 12 211 0.0 3.2 0.00 0.00 0.00 87 1013.2
20260505082536 12 319 0.0 3.2 0.00 0.00 0.00 87 1013.3
20260505081533 12 17 0.0 3.2 0.00 0.00 0.00 87 1013.3
20260505080532 12 233 0.0 3.2 0.00 0.00 0.00 87 1013.4
20260505075531 12 241 0.0 3.2 0.00 0.00 0.00 87 1013.5
20260505074531 12 208 0.0 4.8 0.00 0.00 0.00 86 1013.5
20260505074005 12 213 0.0 6.4 0.00 0.00 0.00 85 1013.5
20260505073733 12 238 1.6 8.0 0.00 0.00 0.00 86 1013.5
20260505072015 12 325 0.0 0.0 0.00 0.00 0.00 84 1013.5
20260505071301 13 294 0.0 3.2 0.00 0.00 0.00 83 1013.3
20260505071105 12 325 0.0 4.8 0.00 0.00 0.00 83 1013.3
20260505064536 13 317 1.6 8.0 0.00 0.00 0.00 83 1013.3
20260505063534 13 320 1.6 4.8 0.00 0.00 0.00 83 1013.2
20260505062530 13 15 1.6 4.8 0.00 0.00 0.00 82 1013.2
20260505061531 13 319 0.0 6.4 0.00 0.00 0.00 82 1013.2
20260505060532 13 314 0.0 3.2 0.00 0.00 0.00 82 1013.1
20260505055531 13 202 1.6 3.2 0.00 0.00 0.00 82 1013.2
20260505055453 13 303 1.6 4.8 0.00 0.00 0.00 82 1013.1
20260505053531 13 306 1.6 8.0 0.00 0.00 0.00 82 1012.9
20260505053013 13 288 1.6 6.4 0.00 0.00 0.00 82 1012.9
20260505051528 13 297 0.0 3.2 0.00 0.00 0.00 82 1012.9
20260505050528 13 293 1.6 6.4 0.00 0.00 0.00 81 1012.8
20260505041529 13 300 1.6 6.4 0.00 0.00 0.00 82 1012.3
20260505040526 13 298 0.0 3.2 0.00 0.00 0.00 82 1012.2
20260505035530 13 290 1.6 8.0 0.00 0.00 0.00 81 1012.1
20260505035432 13 32 1.6 6.4 0.00 0.00 0.00 81 1012.0
20260505033529 14 296 0.0 3.2 0.00 0.00 0.00 80 1011.9
20260505032528 14 261 1.6 6.4 0.00 0.00 0.00 79 1011.9
20260505031542 15 324 1.6 6.4 0.00 0.00 0.00 78 1011.6
20260505031041 15 340 1.6 4.8 0.00 0.00 0.00 77 1011.5
20260505025532 15 273 0.0 6.4 0.00 0.00 0.00 76 1011.3
20260505024521 16 281 1.6 6.4 0.00 0.00 0.00 75 1011.1
20260505023525 16 315 3.2 8.0 0.00 0.00 0.00 74 1011.0
20260505022523 16 294 3.2 8.0 0.00 0.00 0.00 73 1010.8
20260505021531 17 331 3.2 12.9 0.00 0.00 0.00 72 1010.8
20260505020526 17 258 3.2 11.3 0.00 0.00 0.00 71 1010.7
20260505015524 17 288 3.2 16.1 0.00 0.00 0.00 70 1010.7
20260505014527 18 281 3.2 16.1 0.00 0.00 0.00 69 1010.8
20260505013532 18 304 3.2 14.5 0.00 0.00 0.00 69 1010.7
20260505012533 18 273 4.8 16.1 0.00 0.00 0.00 68 1010.7
20260505011525 18 313 4.8 16.1 0.00 0.00 0.00 66 1010.8
20260505010525 19 310 4.8 16.1 0.00 0.00 0.00 67 1010.8
20260505010008 19 304 6.4 19.3 0.00 0.00 0.00 66 1010.9
20260505004531 20 242 3.2 11.3 0.00 0.00 0.00 65 1010.9
20260505004009 20 323 3.2 9.7 0.00 0.00 0.00 64 1010.7
20260505002526 20 275 1.6 9.7 0.00 0.00 0.00 64 1010.7
20260505001526 20 267 3.2 11.3 0.00 0.00 0.00 65 1010.6
20260505001013 20 290 1.6 8.0 0.00 0.00 0.00 64 1010.8
20260505000026 20 284 3.2 12.9 0.00 0.00 0.00 65 1010.8
20260504234525 20 291 4.8 14.5 0.00 0.00 0.00 65 1010.9
20260504233521 20 311 6.4 19.3 0.00 0.00 0.00 65 1010.8
20260504232527 20 313 3.2 16.1 0.00 0.00 0.00 63 1010.9
20260504231522 20 297 3.2 14.5 0.00 0.00 0.00 65 1010.9
20260504230519 20 323 3.2 12.9 0.00 0.00 0.00 63 1011.1
20260504230004 20 207 3.2 11.3 0.00 0.00 0.00 64 1011.1
20260504224520 19 254 3.2 14.5 0.00 0.00 0.00 65 1011.3
20260504223518 19 311 1.6 8.0 0.00 0.00 0.00 65 1011.5
20260504222512 19 299 3.2 9.7 0.00 0.00 0.00 64 1011.7
20260504221519 19 303 1.6 9.7 0.00 0.00 0.00 64 1011.7
20260504220513 19 184 3.2 11.3 0.00 0.00 0.00 64 1011.8
20260504215516 18 208 3.2 9.7 0.00 0.00 0.00 66 1012.0